Temp
6 6 6 6 6 6 6 6 7 7 8 8 8 8 8 8 8 8 8 7 7 7 7 8 8 9 9 10 10 11 12 12 12 12 12 12 12 13 13 13 13 12 12 12 12 12 13 13 13 13 13 13
5 5 5 6 6 6 6 6 6 7 7 8 8 8 8 7 7 7 7 7 7 6 6 7 7 7 8 8 9 10 10 11 11 11 11 12 12 13 13 12 12 12 12 12 12 13 13 13 13 13 13 13
5 4 4 5 5 5 6 5 6 6 7 7 8 8 8 7 7 7 7 7 7 7 6 6 6 6 7 7 8 8 10 10 10 10 11 11 12 12 12 12 12 12 12 12 12 13 12 12 13 13 13 13
5 4 4 4 4 4 5 5 5 5 6 6 7 7 8 8 8 8 7 7 7 7 6 6 6 6 6 6 7 7 8 9 10 10 11 11 11 11 12 12 12 12 12 12 11 12 12 12 12 12 12 12
5 5 4 4 4 4 4 4 4 4 5 5 6 6 7 7 7 7 7 7 7 7 7 7 6 6 6 6 6 7 7 8 9 10 10 10 11 11 11 12 12 12 12 12 11 11 12 12 12 12 12 12
5 5 5 4 4 4 4 4 4 4 4 4 4 5 5 6 6 6 6 7 7 7 7 7 7 7 6 6 6 7 8 8 8 10 10 10 11 11 11 11 11 11 12 12 11 11 12 11 12 12 12 12
4 4 5 5 4 4 4 4 4 4 3 3 3 4 4 4 5 5 5 6 6 7 7 7 7 6 6 6 6 7 8 8 7 8 9 9 10 10 11 11 11 11 11 11 11 11 12 11 11 12 11 12
4 4 4 4 4 4 4 4 4 4 4 3 3 3 3 3 3 4 4 5 6 6 7 7 7 6 6 6 6 6 7 7 7 7 8 9 9 9 10 10 11 11 11 11 11 11 11 11 11 12 12 12
4 3 4 4 4 4 4 4 4 4 4 3 3 3 3 3 3 3 3 3 4 5 6 6 7 6 6 6 5 6 6 7 7 7 7 8 8 9 9 10 10 10 10 11 11 10 11 11 11 11 12 12
3 3 3 3 3 3 4 3 4 4 4 4 3 3 3 3 3 3 3 3 3 3 4 5 5 6 6 5 5 5 6 6 6 7 7 7 7 8 8 9 9 9 10 10 10 10 11 10 11 11 12 12
3 3 3 2 2 3 3 3 3 3 3 4 4 4 3 3 3 3 4 3 3 3 3 3 3 4 4 5 5 5 5 5 5 6 7 7 7 7 8 8 8 9 9 9 10 10 10 10 10 11 11 11
2 2 2 2 2 2 2 2 3 3 3 4 4 4 3 2 3 3 3 3 3 3 3 3 3 3 3 4 4 4 5 5 5 5 6 6 7 7 7 7 8 8 9 9 9 9 9 10 10 11 11 11
1 1 1 1 1 2 2 2 2 2 3 3 3 3 3 2 2 3 3 3 3 3 3 3 3 3 3 3 3 3 4 4 5 5 5 5 6 6 6 7 7 7 8 8 9 9 9 9 10 10 11 11
1 1 1 1 1 1 1 1 1 2 2 3 3 3 3 2 2 2 2 3 3 3 3 3 3 3 3 3 3 3 3 3 4 4 5 5 5 5 6 6 6 6 7 8 8 8 9 9 9 9 10 10
-0 -0 -0 -0 -0 0 0 0 1 1 2 2 2 3 2 2 2 2 2 2 2 2 2 3 3 3 3 3 4 4 3 3 3 3 4 4 4 5 5 5 6 6 6 7 7 8 8 8 8 8 9 10
-1 -1 -1 -1 -1 -1 -1 -1 0 1 1 1 2 2 1 1 1 1 1 2 2 2 2 2 3 3 3 3 4 4 4 3 3 3 3 3 4 4 4 5 5 5 6 6 7 7 7 8 8 8 8 9
-2 -2 -2 -2 -2 -1 -2 -1 -1 -0 1 1 1 1 1 1 1 1 1 1 1 1 1 2 2 2 3 3 3 3 3 3 3 3 3 3 3 4 4 4 4 5 5 6 6 6 6 7 7 8 8 8
-2 -2 -2 -2 -2 -2 -2 -2 -2 -1 -1 -0 -0 0 0 0 0 0 0 0 0 1 1 1 1 2 2 3 3 3 3 3 3 3 3 3 3 3 3 4 4 4 4 5 5 5 5 6 6 6 7 7
-2 -2 -2 -2 -2 -2 -2 -3 -3 -2 -2 -2 -1 -1 -1 -0 -0 -0 -0 -0 -0 0 0 1 1 1 2 2 2 2 2 3 3 3 3 3 3 3 3 3 3 4 4 4 4 5 5 5 5 6 6 7
-2 -2 -2 -2 -2 -2 -2 -3 -3 -3 -3 -2 -2 -2 -1 -1 -1 -1 -1 -1 -1 -0 -0 0 0 1 1 1 1 2 2 2 3 3 3 4 4 3 3 3 3 3 4 4 4 4 4 4 5 5 5 6
-2 -2 -2 -2 -2 -2 -2 -2 -2 -3 -3 -3 -3 -2 -2 -2 -2 -2 -2 -2 -2 -1 -1 -0 0 0 0 1 1 1 1 2 2 3 3 4 4 4 4 4 3 3 3 3 3 4 4 4 4 4 5 5
-2 -2 -2 -2 -2 -2 -2 -2 -2 -2 -3 -3 -3 -3 -3 -3 -3 -3 -3 -2 -2 -2 -1 -1 -0 -0 -0 0 0 1 1 1 2 2 3 3 3 3 4 4 4 4 4 3 3 3 3 4 4 4 5 5
-2 -2 -2 -2 -2 -2 -2 -2 -2 -2 -3 -3 -3 -3 -3 -3 -4 -3 -3 -3 -3 -2 -2 -2 -1 -1 -0 -0 0 0 0 1 1 2 2 2 3 3 3 3 4 4 4 4 3 3 3 3 3 4 4 4
-1 -1 -1 -2 -2 -2 -2 -2 -2 -2 -3 -3 -3 -3 -3 -4 -4 -4 -4 -3 -3 -3 -3 -2 -2 -1 -1 -1 -0 -0 -0 0 1 1 2 2 2 2 3 3 3 3 3 4 4 4 3 3 3 4 4 4
-1 -1 -1 -2 -2 -2 -2 -2 -2 -3 -3 -3 -3 -3 -4 -4 -4 -4 -4 -4 -4 -3 -3 -3 -2 -2 -2 -2 -1 -1 -0 0 0 1 1 1 1 2 2 2 3 3 3 3 4 4 4 4 4 4 4 4
-1 -2 -2 -2 -2 -2 -3 -3 -3 -3 -3 -3 -3 -3 -4 -4 -4 -4 -4 -4 -4 -4 -4 -4 -3 -3 -3 -3 -2 -1 -1 -0 0 0 0 0 1 1 2 2 2 3 3 3 4 4 4 5 5 5 4 4
-1 -2 -2 -2 -3 -3 -3 -3 -3 -3 -3 -3 -3 -3 -3 -3 -4 -4 -4 -4 -4 -4 -4 -4 -4 -4 -3 -3 -3 -2 -1 -1 -0 -0 -0 0 0 1 1 2 2 2 3 3 4 4 4 4 5 5 5 4
-2 -2 -3 -3 -3 -4 -4 -4 -4 -4 -4 -4 -4 -3 -3 -4 -4 -4 -5 -5 -5 -5 -5 -5 -5 -4 -4 -4 -3 -3 -2 -1 -1 -0 -0 -0 0 0 1 1 2 2 3 3 3 3 3 4 5 5 6 6
-3 -3 -4 -4 -4 -4 -4 -4 -4 -4 -4 -4 -4 -4 -4 -4 -4 -5 -5 -5 -5 -5 -5 -5 -5 -5 -4 -4 -4 -3 -3 -2 -1 -1 -0 -0 -0 0 0 1 1 2 2 3 3 3 3 4 4 4 6 7
-5 -5 -5 -5 -5 -5 -5 -5 -5 -5 -5 -5 -5 -5 -5 -5 -5 -5 -5 -6 -6 -6 -6 -6 -5 -5 -5 -5 -4 -4 -3 -2 -2 -1 -1 -0 -0 -0 0 0 1 1 2 2 2 3 3 3 4 4 4 4
-6 -6 -6 -6 -6 -6 -6 -6 -6 -6 -6 -6 -6 -6 -6 -6 -6 -6 -6 -6 -6 -6 -6 -6 -5 -5 -5 -5 -5 -4 -4 -3 -2 -2 -1 -1 -1 -0 -0 -0 0 0 1 1 2 2 2 2 3 3 3 2
Height
831 831 830 829 828 826 825 824 823 822 821 821 820 819 819 818 817 816 815 814 814 813 813 812 813 814 813 812 812 811 811 811 812 812 813 813 813 814 814 815 816 817 819 819 820 821 821 822 823 823 824 825
833 833 832 831 829 828 827 827 826 824 824 823 823 822 821 820 819 818 817 816 815 814 814 813 813 814 814 813 812 812 811 811 811 811 812 812 812 813 814 814 815 816 818 818 819 820 821 822 822 823 824 825
836 835 834 832 831 830 830 829 828 827 826 825 824 824 824 823 822 821 820 819 818 817 816 815 814 815 816 814 813 813 812 811 810 810 811 811 812 812 813 814 815 816 817 818 819 820 821 822 822 822 823 824
839 837 835 835 833 832 832 831 830 829 828 827 826 826 825 824 823 822 821 821 820 820 818 817 816 817 818 817 815 815 814 811 810 810 810 811 811 812 812 813 814 815 816 817 818 819 820 821 822 821 822 823
840 839 838 837 836 834 833 832 832 831 829 828 828 827 826 825 824 823 822 822 821 820 820 820 819 818 819 819 817 817 816 813 811 810 810 810 811 811 812 813 814 815 816 816 817 818 819 821 821 821 821 823
843 842 840 839 838 837 835 834 833 832 831 830 829 828 827 826 825 824 823 823 822 821 821 821 821 819 820 820 819 818 817 815 812 810 810 810 810 811 811 812 814 815 815 815 817 818 819 820 821 821 820 822
845 844 842 841 840 839 837 836 835 834 833 832 831 830 828 827 826 826 825 824 823 822 822 822 821 820 819 820 820 819 818 816 814 813 811 810 810 811 811 812 813 815 814 815 816 817 818 819 820 820 820 821
847 846 844 843 842 841 839 838 837 836 835 833 832 831 830 829 828 827 826 825 824 823 822 822 822 820 819 820 820 819 818 817 815 814 813 811 810 810 811 811 812 814 814 814 814 816 817 818 819 819 820 820
849 848 846 845 844 842 841 840 839 837 836 835 834 833 832 831 829 828 827 827 825 824 823 823 822 821 820 821 821 820 818 817 815 815 814 812 810 810 811 811 812 813 813 814 814 815 817 818 818 818 819 819
851 850 848 847 845 844 842 841 840 838 837 836 835 834 833 831 831 830 829 828 826 824 823 822 823 822 822 823 822 821 819 818 816 815 814 813 811 811 811 811 812 812 813 814 814 814 816 817 817 817 818 819
853 851 850 848 847 845 844 842 841 840 838 837 836 835 834 832 832 831 829 828 827 825 824 823 823 822 822 823 823 822 820 818 817 815 814 814 813 812 812 812 813 813 813 813 814 814 815 816 815 816 817 818
854 853 851 849 848 846 845 844 842 841 839 838 837 835 834 833 832 832 830 829 828 827 826 825 824 823 822 822 822 821 820 818 817 815 814 813 813 812 813 813 812 812 812 813 813 814 815 815 815 815 816 817
855 854 852 851 849 847 846 844 843 841 840 838 837 836 835 834 833 832 831 830 829 828 827 826 825 824 823 821 821 820 819 818 816 815 814 813 812 812 813 813 812 811 812 812 813 814 814 814 814 814 815 816
856 854 853 851 850 848 847 845 843 842 840 839 838 837 836 835 834 833 832 831 829 828 827 826 824 823 823 822 820 820 818 817 816 814 813 812 812 812 812 812 811 811 811 811 812 813 813 813 814 814 814 814
855 854 853 852 850 849 847 846 844 842 841 839 838 837 836 835 834 833 832 831 830 828 827 826 825 823 822 821 820 820 818 817 815 814 812 811 811 811 811 811 811 810 810 811 812 812 812 812 812 813 813 813
854 853 852 851 850 849 847 846 844 843 841 840 839 837 836 835 834 833 832 831 830 828 827 826 825 823 822 821 820 819 818 817 815 813 811 810 810 810 810 810 809 809 809 810 811 811 810 810 810 811 811 812
853 852 851 850 849 848 847 846 844 843 842 840 839 838 836 835 834 833 832 830 829 828 827 826 824 823 822 821 820 819 817 816 814 812 811 810 809 809 809 808 807 808 808 809 809 810 809 808 808 809 809 810
852 851 850 849 847 847 846 844 844 843 842 841 839 838 836 835 834 833 832 830 829 828 826 825 824 823 821 820 819 818 817 815 814 812 811 810 809 808 808 807 807 807 808 808 808 808 808 808 807 808 808 808
851 850 849 848 846 845 844 843 842 841 841 840 839 838 836 835 834 833 832 830 829 827 826 825 823 822 821 820 819 817 816 815 813 812 811 810 809 808 807 806 806 806 806 806 806 807 807 807 806 806 806 807
850 849 847 846 845 844 843 842 841 840 839 839 839 838 837 835 834 832 831 830 828 826 825 824 823 822 820 819 818 817 816 814 813 812 810 809 808 807 806 805 804 805 805 805 805 805 806 806 805 805 805 805
849 848 846 845 844 842 842 841 840 839 838 838 838 837 836 835 833 832 830 829 827 826 824 823 821 820 820 819 818 816 815 813 812 811 809 808 807 806 805 804 804 804 804 804 804 804 804 804 804 804 804 804
848 846 845 843 842 841 840 839 838 837 837 836 836 835 835 834 832 831 829 827 826 824 823 822 820 819 818 818 817 815 814 812 811 810 808 807 806 806 805 804 804 803 803 803 803 803 803 803 803 803 803 802
847 846 844 842 841 840 839 838 837 836 836 835 834 834 833 832 831 829 827 826 824 823 822 820 819 817 816 816 815 814 813 811 810 808 807 806 805 805 804 804 803 803 803 802 802 802 802 801 801 801 801 800
844 843 842 841 840 838 838 837 836 835 834 833 832 832 831 830 829 827 825 824 822 821 820 819 817 816 815 814 814 813 812 810 809 807 806 805 804 804 803 802 802 802 802 801 801 800 800 799 798 797 798 798
841 841 839 838 838 836 836 835 835 833 833 832 831 830 829 828 827 826 824 822 820 819 819 817 816 815 813 813 812 811 810 809 808 806 805 804 803 802 802 801 800 800 800 800 799 798 797 796 794 794 794 794
839 839 838 837 836 835 834 834 833 831 831 830 829 828 827 826 826 824 823 821 819 818 817 816 815 813 812 811 810 809 808 807 806 805 804 803 802 801 800 799 798 799 798 797 796 795 794 793 791 790 790 791
837 837 837 836 835 834 833 832 831 830 828 828 826 825 825 824 823 823 821 820 818 817 815 815 813 811 810 809 808 807 806 805 804 803 802 801 800 799 798 796 796 796 796 795 794 794 793 791 789 787 787 787
836 835 835 835 834 833 832 830 829 828 826 825 824 823 822 822 821 821 819 818 816 815 814 813 811 809 807 806 806 805 804 802 802 800 799 798 797 796 795 794 793 793 793 793 793 792 791 790 789 787 784 783
835 834 834 834 832 831 830 829 828 826 825 823 822 821 820 820 819 818 817 816 815 813 812 810 808 806 805 803 803 802 801 800 799 798 797 796 795 794 793 792 791 791 790 791 791 790 789 788 788 786 783 783
836 835 834 834 832 831 830 828 827 825 824 822 821 820 819 818 817 816 814 813 812 811 809 807 805 803 802 801 800 799 798 797 796 795 794 793 792 791 791 791 790 789 788 788 788 788 788 787 786 785 785 786
837 836 835 834 833 832 830 828 826 825 823 821 820 819 817 816 815 813 812 810 809 807 806 804 802 801 800 799 798 797 795 794 792 792 791 790 790 789 789 789 788 787 787 787 786 787 787 787 786 786 787 788
Wind_Speed
30 29 28 27 27 26 26 25 24 22 19 16 15 14 13 14 14 13 16 20 24 25 22 22 24 24 17 14 13 9 6 3 1 1 0 2 6 8 8 9 11 13 15 16 13 11 9 7 6 6 6 5
28 28 28 28 28 27 27 26 25 23 22 19 17 17 16 15 15 14 16 16 19 24 24 23 23 26 23 17 13 9 9 8 7 5 4 2 3 6 8 8 9 11 14 17 14 13 12 9 8 7 7 5
24 26 26 27 28 27 27 27 26 25 23 21 17 16 17 17 16 15 16 16 18 20 23 25 25 25 24 21 17 13 7 5 6 7 4 2 1 3 5 7 8 10 13 17 15 14 14 11 10 9 9 6
21 23 24 23 24 25 26 26 25 25 25 23 20 17 17 17 17 17 16 16 17 18 21 24 25 25 24 22 20 18 13 6 3 3 3 3 2 1 2 4 7 9 12 16 16 16 16 13 11 12 11 7
20 20 21 21 21 22 23 24 23 24 25 25 23 21 19 19 19 19 18 18 18 18 19 20 22 23 23 22 20 19 18 14 7 2 3 3 3 2 0 1 4 7 11 16 18 19 17 14 12 13 11 8
21 20 19 20 20 19 20 21 20 20 21 23 23 23 22 21 21 20 20 19 19 19 20 20 21 22 22 21 21 20 19 19 15 8 6 5 4 3 1 1 2 4 9 14 18 18 17 15 13 14 11 8
21 21 19 19 20 18 18 19 18 18 17 19 20 21 22 21 21 21 20 20 18 18 19 21 22 23 24 22 21 21 20 19 19 14 12 9 7 6 2 2 1 4 6 12 19 18 18 17 15 15 12 11
21 21 20 19 20 18 18 18 17 17 16 17 17 17 18 18 19 21 20 20 19 16 16 17 20 22 24 26 23 21 20 19 19 16 14 12 10 9 6 2 2 2 5 8 19 20 17 17 17 16 14 14
20 21 20 20 20 18 17 17 16 16 16 16 16 16 16 16 16 17 16 18 21 19 17 16 17 19 21 26 25 21 21 20 18 17 16 14 12 11 9 7 3 1 3 5 16 19 15 14 17 18 15 15
20 20 20 20 20 18 18 17 16 16 16 15 15 14 15 16 15 14 13 15 18 19 19 18 18 18 19 22 23 22 22 19 16 16 16 15 13 12 9 8 7 3 1 2 10 14 12 11 16 20 17 16
20 20 20 20 19 18 18 18 16 16 16 14 14 14 14 16 15 14 14 14 16 16 16 17 18 18 18 19 20 20 21 18 15 15 15 13 11 11 10 8 8 5 2 1 5 10 11 12 16 19 19 18
19 20 20 20 19 18 18 18 17 17 16 14 13 13 13 15 15 14 15 14 15 15 14 15 16 16 16 18 20 19 18 18 16 14 13 12 11 10 9 9 9 7 4 4 4 7 10 13 16 18 20 20
18 19 19 19 19 19 18 18 19 17 16 14 13 12 12 14 15 14 15 14 14 15 15 15 15 15 14 17 19 17 16 16 16 14 12 11 11 9 8 8 9 10 6 5 6 7 9 13 15 17 20 22
17 18 17 18 18 18 18 19 19 17 16 15 13 12 13 14 14 14 15 15 15 14 15 16 15 14 14 15 16 13 13 14 15 15 14 12 9 8 9 7 8 10 9 8 9 10 11 13 13 15 19 22
16 16 16 17 17 16 17 19 19 17 16 15 14 13 13 13 14 15 15 15 15 15 16 16 15 14 14 15 13 12 12 12 13 14 14 14 11 9 8 7 7 8 9 9 9 11 13 14 14 14 18 21
14 15 15 15 15 14 16 18 17 17 16 15 14 14 14 14 15 15 15 15 15 15 16 16 15 15 15 14 13 12 12 12 14 13 11 11 12 12 10 8 8 7 8 8 8 10 13 14 16 16 17 20
13 13 13 14 13 13 15 16 16 16 15 15 15 15 15 15 15 15 15 15 15 16 16 16 16 15 15 14 13 12 12 14 13 10 9 9 9 10 11 10 9 7 7 8 7 8 11 13 14 16 18 19
12 13 13 12 13 13 13 14 15 14 15 15 16 16 15 15 15 15 15 15 16 16 16 16 16 16 15 14 13 13 13 13 12 11 10 9 8 7 8 10 11 9 7 7 8 9 10 13 14 14 17 20
12 13 13 13 13 13 12 12 12 12 14 15 16 16 15 15 16 16 16 17 17 16 15 16 16 16 15 15 14 14 14 13 12 12 12 10 9 7 8 10 11 10 9 7 8 10 10 11 15 15 16 19
13 13 14 13 13 13 12 12 11 11 12 13 14 15 15 15 16 17 17 17 17 17 16 16 16 16 16 16 16 15 14 14 13 13 12 11 10 9 9 9 9 10 12 12 11 12 11 10 14 17 17 17
14 14 15 14 13 13 12 12 12 11 11 12 13 14 14 15 17 18 18 17 17 17 17 17 16 16 16 17 16 16 15 14 13 13 13 12 11 10 10 9 9 9 11 13 13 13 12 11 12 17 20 19
16 16 15 14 14 14 13 13 12 12 12 13 13 13 14 15 17 18 17 17 17 17 17 18 18 17 16 17 17 16 16 15 14 14 14 13 12 11 11 10 10 10 9 10 11 12 13 13 13 14 17 20
18 18 16 15 15 15 15 14 13 13 13 14 14 13 14 16 17 16 16 16 16 17 17 18 18 18 17 17 18 17 17 16 15 14 14 14 14 13 13 13 12 11 10 10 11 12 14 16 17 17 15 17
20 20 19 19 18 17 17 16 16 15 15 16 15 15 16 17 17 15 14 14 15 16 17 17 18 18 18 18 18 18 18 17 16 15 14 14 14 15 15 15 14 13 12 12 13 13 14 16 19 21 19 19
22 22 22 22 20 20 19 19 19 18 17 17 18 18 17 17 16 15 15 15 15 15 16 17 18 18 18 18 19 19 19 19 18 17 16 15 15 15 15 15 14 13 12 13 12 12 13 15 18 20 20 21
23 22 22 22 22 22 22 22 22 21 20 20 20 19 17 18 17 16 18 17 15 14 16 18 19 19 19 19 20 21 21 20 20 19 18 18 17 16 16 16 15 14 13 12 11 9 9 10 13 17 18 19
23 22 22 22 23 23 23 23 22 23 23 23 22 21 20 21 21 20 20 18 17 17 19 20 22 22 22 21 21 22 22 21 21 21 19 18 18 17 16 16 16 15 15 13 11 9 7 6 6 9 13 15
23 22 22 22 23 23 22 23 22 23 24 23 23 23 23 23 23 22 22 21 22 24 24 23 25 25 23 22 22 23 23 23 22 21 19 18 18 17 17 16 16 16 16 16 12 7 5 5 5 5 6 9
21 19 19 19 20 20 20 21 22 22 23 23 23 24 24 25 25 25 25 25 25 26 27 27 27 26 24 23 22 23 24 24 23 22 21 19 18 19 18 17 16 16 17 17 16 12 7 5 4 4 4 5
20 17 16 17 18 18 19 21 22 22 23 23 24 25 25 27 28 28 28 27 26 26 27 28 27 24 23 23 22 23 24 25 24 23 22 21 19 19 19 18 17 17 17 17 19 19 16 12 9 6 5 6
20 18 18 19 20 21 21 22 23 23 24 25 25 26 27 28 29 29 29 28 27 26 26 26 24 22 23 23 23 23 24 25 25 24 23 22 21 20 19 19 19 18 17 17 18 19 20 19 17 14 10 6
Wind_Direction
48 46 45 45 45 46 47 47 46 45 42 42 40 35 36 43 47 52 54 52 42 36 42 49 38 31 42 49 49 75 108 97 118 209 2 305 259 222 222 226 217 216 203 197 195 189 182 166 159 148 147 172
39 40 40 43 44 44 44 43 44 46 46 46 46 40 35 36 41 43 44 49 47 40 39 45 41 27 28 35 38 58 77 81 82 73 63 22 250 219 220 220 222 223 207 198 200 204 195 173 162 161 158 169
25 27 30 35 37 39 40 39 39 41 44 45 46 42 38 37 37 37 36 38 40 40 35 36 39 27 21 29 30 28 43 78 75 69 67 54 130 205 225 221 224 227 213 201 201 211 202 181 169 170 172 184
18 18 20 22 24 28 31 32 33 35 37 39 40 40 37 35 35 32 28 28 28 28 26 26 30 26 20 24 28 25 22 25 35 62 61 34 56 88 221 225 230 230 220 205 203 213 205 187 182 180 177 197
15 13 15 15 14 17 19 21 23 26 28 30 32 34 34 30 29 28 22 18 17 14 12 13 15 19 19 19 24 26 24 25 19 20 39 26 34 36 2 272 246 236 226 209 204 213 208 192 194 190 179 196
13 10 11 11 10 10 12 13 15 17 19 21 23 26 29 29 26 25 21 15 12 8 3 2 3 8 11 12 17 21 24 26 24 26 25 22 26 29 57 338 312 255 236 215 204 209 212 203 202 195 183 198
11 10 9 8 7 6 7 7 9 11 11 12 13 16 20 21 21 23 22 18 14 8 2 358 356 359 4 6 9 13 17 19 21 25 26 29 21 20 54 132 22 306 263 215 201 205 215 211 208 201 190 197
9 8 6 6 4 2 3 3 3 5 5 6 7 8 10 7 8 12 14 14 15 11 2 357 354 353 357 1 2 5 9 11 14 15 20 31 27 19 23 58 101 342 316 224 200 201 214 214 213 209 200 200
7 5 5 4 2 0 360 358 358 360 359 359 2 5 6 1 358 0 359 359 6 11 6 360 357 354 353 356 358 358 359 5 8 7 9 17 22 22 17 9 22 71 6 247 208 201 208 215 218 216 209 210
3 2 3 1 358 358 357 355 354 354 354 353 355 358 2 2 356 354 350 349 354 360 1 0 359 358 356 353 353 351 351 358 3 3 4 7 9 12 15 7 354 355 57 228 211 205 205 216 226 222 213 212
2 0 360 358 355 356 354 353 351 349 348 346 350 352 357 359 354 350 347 347 349 350 348 349 351 351 352 349 347 344 344 349 352 357 1 4 4 1 1 357 345 334 316 265 211 208 210 224 232 226 220 214
0 358 357 355 353 352 352 351 348 345 341 340 344 346 351 353 350 348 345 342 343 344 340 339 339 338 337 338 340 338 336 341 345 350 356 357 357 356 354 344 335 327 301 276 238 215 219 237 240 230 226 223
358 356 355 354 352 349 348 348 344 340 337 337 338 340 345 348 345 342 341 338 336 336 335 333 331 328 324 326 332 332 330 335 337 339 341 346 350 348 346 342 334 328 313 278 252 234 231 243 250 239 230 228
355 354 352 352 350 347 347 344 340 337 336 334 332 334 339 341 341 338 336 332 331 330 329 328 324 322 320 318 323 321 319 325 328 330 329 332 340 336 331 333 331 327 323 306 274 251 240 241 248 243 233 231
351 351 350 348 346 345 346 343 338 335 333 331 329 331 334 335 335 334 332 328 327 326 324 323 319 317 316 314 314 311 309 313 319 322 322 322 323 319 319 318 320 324 322 316 301 277 256 242 239 237 233 233
345 346 344 344 343 342 343 341 339 334 330 329 328 327 328 328 328 327 327 326 326 324 321 318 315 313 311 309 308 306 304 305 308 311 312 315 315 313 311 305 307 315 313 310 310 298 278 256 244 239 235 233
338 338 337 338 338 336 338 340 338 334 331 329 327 325 323 323 323 324 324 323 323 321 318 315 313 310 307 305 303 302 302 302 302 299 299 304 307 309 305 301 302 302 304 302 298 304 295 277 259 248 241 235
328 329 328 328 328 327 330 336 336 333 332 330 327 323 322 322 322 322 322 321 320 317 315 312 310 307 305 304 303 302 301 298 295 291 291 291 290 293 292 297 300 294 292 293 288 294 297 288 277 261 250 243
316 319 319 317 318 317 318 325 329 329 331 330 327 324 322 322 322 321 320 318 316 312 310 309 307 304 303 304 304 302 299 294 289 286 284 281 278 276 280 290 292 286 282 283 283 286 289 287 281 273 263 252
306 308 310 309 307 307 308 312 314 317 326 327 324 324 322 323 323 320 317 316 313 308 305 304 303 302 302 302 301 299 296 291 285 283 279 274 271 270 276 284 285 282 281 278 277 279 279 280 278 275 271 262
301 303 302 303 303 301 301 302 304 305 313 319 318 317 317 320 322 317 313 312 311 306 301 299 298 298 300 299 297 294 292 288 284 281 278 273 268 267 270 270 272 276 278 276 274 272 268 268 272 272 272 269
299 301 298 298 299 299 297 297 298 299 304 309 308 308 309 314 317 315 311 308 308 305 300 297 294 294 296 296 295 291 288 286 283 279 275 273 268 265 264 263 264 265 267 270 270 270 264 259 261 266 270 269
300 300 299 300 301 300 299 298 298 298 300 302 300 301 305 310 311 310 309 308 307 304 300 297 293 291 293 293 292 289 286 284 281 277 271 268 266 263 261 259 260 260 263 266 264 266 264 260 260 260 260 263
297 297 299 301 301 301 301 301 300 298 298 298 298 300 303 306 305 304 307 309 308 304 300 298 294 292 291 290 289 286 282 279 277 276 273 269 266 263 260 257 255 255 259 262 262 261 260 259 261 262 257 254
295 295 299 300 299 301 301 301 300 299 300 302 302 302 303 303 302 303 306 308 307 303 301 300 296 294 291 287 286 283 280 277 275 273 273 271 268 264 261 256 250 247 250 256 259 261 260 256 254 258 258 253
294 291 295 296 297 299 299 298 298 297 300 303 304 302 301 301 301 305 309 307 305 305 303 301 297 294 289 284 282 281 278 276 273 270 268 267 264 260 257 253 248 242 242 246 251 258 266 264 252 246 246 248
297 292 293 294 295 296 295 295 295 295 297 298 299 298 298 299 300 302 305 304 304 305 302 298 295 291 285 281 277 277 277 274 270 266 263 261 258 257 254 252 247 239 236 242 249 257 260 266 267 245 227 230
300 292 292 294 294 294 294 294 294 294 294 295 296 297 297 298 298 300 300 299 301 302 298 295 292 287 281 277 273 272 272 270 267 263 261 258 253 252 252 251 249 240 236 238 240 248 251 253 266 258 231 226
319 308 304 303 300 299 298 297 296 295 294 296 296 296 296 296 296 297 297 297 298 297 295 292 290 283 276 274 272 269 267 265 265 261 258 256 252 249 248 249 251 245 239 236 235 239 242 245 246 243 268 287
346 337 325 318 313 309 305 300 297 296 296 297 297 296 296 295 295 295 294 294 294 295 295 292 287 281 275 274 271 268 266 263 261 259 256 253 250 249 246 246 248 247 243 239 237 238 239 248 261 276 307 323
340 331 321 316 312 308 304 300 297 297 297 297 297 296 295 295 294 293 292 292 292 295 295 291 286 282 278 276 273 269 267 263 257 255 254 252 248 246 243 242 243 243 242 241 239 237 239 246 256 266 276 281